Location: Be Tobo
(6.6442°N, 10.6239°W)
Time: 04:01:19
(UTC+00:00)

GPS 2-14 Rocket1 - Pass Details

Date: 18 September 2020
Orbit: 476 x 541 km, 20.7° (Epoch: 23 October)

Event Time Altitude Azimuth Distance (km) Brightness Sun altitude
Rises 19:48:37 0° 276° (W) 2,502 7.9 -17.8°
Reaches altitude 10° 19:50:58 10° 265° (W) 1,628 6.5 -18.3°
Maximum altitude 19:54:18 30° 202° (SSW) 872 4.0 -19.2°
Enters shadow 19:55:32 24° 167° (SSE) 1,012 4.0 -19.5°
